Canadian, TX

8:58 PM CDT on August 23, 2017 (GMT -0500)
Hemphill County

Weather History for KHHF - October, 2013

Change the Weather History Date:

Friday, October 18, 2013

  Actual Average (KPPA) Record (KPPA)
Temperature  
Mean Temperature 42 °F -  
Max Temperature 54 °F 69 °F 93 °F (1991)
Min Temperature 30 °F 42 °F 27 °F (2013)
Degree Days  
Heating Degree Days 22    
Moisture  
Dew Point 36 °F    
Average Humidity 78    
Maximum Humidity 98    
Minimum Humidity 46    
Precipitation  
Precipitation 0.00 in - - ()
Sea Level Pressure  
Sea Level Pressure 30.09 in    
Wind  
Wind Speed 11 mph (NE)    
Max Wind Speed 22 mph    
Max Gust Speed 30 mph    
Visibility 9 miles    
Events Rain , Thunderstorm    
Averages and records for this station are not official NWS values.
T = Trace of Precipitation, MM = Missing Value Source: NWS Daily Summary

Daily Weather History Graph

Daily Weather History Graph

Search for Another Location

Airport or City:

Trip Planner

Search our weather history database for the weather conditions in past years. The results will help you decide how hot, cold, wet, or windy it might be!

Date:

Astronomy

Oct. 18, 2013 Rise Set
Actual Time 7:51 AM CDT 7:01 PM CDT
Civil Twilight 7:25 AM CDT 7:27 PM CDT
Nautical Twilight 6:55 AM CDT 7:57 PM CDT
Astronomical Twilight 6:25 AM CDT 8:26 PM CDT
Moon 6:53 PM CDT (10/18) 7:28 AM CDT (10/18)
Length of Visible Light 12h 02m
Length of Day
11h 10m
Full, 100% of the Moon is Illuminated
Oct 18
Full
Oct 18
Full
Oct 26
Last Quarter
Nov 3
New
Nov 9
First Quarter

Hourly Weather History & Observations

Time (CDT) Temp. Windchill Dew Point Humidity Pressure Visibility Wind Dir Wind Speed Gust Speed Precip Events Conditions
12:15 AM 55.0 °F - 39.7 °F 56% 30.00 in 10.0 mi East 10.4 mph - N/A   Overcast
12:35 AM 55.4 °F - 36.5 °F 49% 30.00 in 10.0 mi East 11.5 mph - N/A   Overcast
12:55 AM 54.9 °F - 34.3 °F 46% 30.00 in 10.0 mi East 9.2 mph - N/A   Overcast
1:15 AM 54.9 °F - 34.2 °F 46% 30.00 in 10.0 mi East 6.9 mph - N/A   Overcast
1:35 AM 54.7 °F - 34.0 °F 46% 29.99 in 10.0 mi East 6.9 mph - N/A   Overcast
1:55 AM 53.8 °F - 33.8 °F 47% 29.99 in 10.0 mi ENE 3.5 mph - N/A   Overcast
2:15 AM 53.6 °F - 33.4 °F 46% 29.98 in 10.0 mi East 9.2 mph - N/A   Overcast
2:35 AM 53.1 °F - 32.9 °F 46% 29.98 in 10.0 mi ESE 10.4 mph 16.1 mph N/A   Mostly Cloudy
2:55 AM 53.4 °F - 33.8 °F 47% 29.98 in 10.0 mi ESE 10.4 mph - N/A   Overcast
3:15 AM 53.6 °F - 34.2 °F 48% 29.97 in 10.0 mi ESE 11.5 mph - N/A   Overcast
3:35 AM 52.9 °F - 35.4 °F 52% 29.97 in 10.0 mi East 10.4 mph - N/A   Mostly Cloudy
3:55 AM 52.5 °F - 36.0 °F 53% 29.97 in 10.0 mi East 9.2 mph - N/A   Overcast
4:15 AM 52.3 °F - 36.7 °F 55% 29.96 in 10.0 mi East 9.2 mph - N/A   Overcast
4:35 AM 52.3 °F - 37.4 °F 57% 29.95 in 10.0 mi East 5.8 mph - N/A   Overcast
4:55 AM 52.7 °F - 38.5 °F 58% 29.95 in 10.0 mi East 9.2 mph - N/A   Overcast
5:15 AM 52.7 °F - 38.7 °F 59% 29.95 in 10.0 mi East 8.1 mph - N/A   Overcast
5:35 AM 52.3 °F - 36.9 °F 56% 29.96 in 10.0 mi East 12.7 mph 16.1 mph N/A   Overcast
5:55 AM 49.8 °F - 37.4 °F 62% 29.97 in 10.0 mi East 16.1 mph 20.7 mph N/A Thunderstorm Thunderstorm
6:15 AM 48.2 °F - 38.3 °F 69% 29.97 in 10.0 mi East 15.0 mph 19.6 mph N/A   Overcast
6:35 AM 47.3 °F - 39.2 °F 73% 29.95 in 10.0 mi East 15.0 mph - N/A   Overcast
6:55 AM 46.8 °F - 40.1 °F 78% 29.95 in 10.0 mi East 15.0 mph 21.9 mph N/A   Overcast
7:15 AM 46.4 °F 41.1 °F 40.5 °F 80% 29.96 in 10.0 mi East 11.5 mph 19.6 mph N/A   Overcast
7:35 AM 46.4 °F 41.9 °F 41.0 °F 81% 29.98 in 10.0 mi ENE 9.2 mph 16.1 mph N/A Rain , Thunderstorm Light Thunderstorms and Rain
7:55 AM 46.0 °F 41.0 °F 40.6 °F 81% 29.98 in 10.0 mi ENE 10.4 mph - N/A Thunderstorm Overcast
8:15 AM 45.7 °F 40.2 °F 41.0 °F 84% 30.00 in 10.0 mi ENE 11.5 mph - N/A   Overcast
8:35 AM 44.8 °F 39.4 °F 41.4 °F 88% 30.02 in 7.0 mi NE 10.4 mph - N/A Rain Rain
8:55 AM 43.9 °F 38.3 °F 41.9 °F 93% 30.02 in 4.0 mi ENE 10.4 mph 16.1 mph N/A Rain Rain
9:15 AM 43.2 °F 37.0 °F 41.9 °F 95% 30.03 in 3.0 mi ENE 11.5 mph 17.3 mph N/A Rain Rain
9:35 AM 43.2 °F 37.4 °F 41.9 °F 95% 30.04 in 2.0 mi NE 10.4 mph - N/A   Drizzle
9:55 AM 42.1 °F 33.6 °F 40.3 °F 93% 30.06 in 5.0 mi NE 18.4 mph 23.0 mph N/A   Light Drizzle
10:15 AM 42.3 °F 34.1 °F 40.5 °F 93% 30.08 in 7.0 mi NE 17.3 mph 21.9 mph N/A   Overcast
10:35 AM 41.9 °F 36.3 °F 39.6 °F 91% 30.09 in 10.0 mi NE 9.2 mph - N/A   Overcast
10:55 AM 41.9 °F 35.4 °F 39.4 °F 91% 30.09 in 7.0 mi NE 11.5 mph - N/A   Drizzle
11:15 AM 41.4 °F 34.0 °F 39.6 °F 93% 30.10 in 4.0 mi NE 13.8 mph 19.6 mph N/A   Drizzle
11:35 AM 41.0 °F 33.5 °F 39.2 °F 93% 30.12 in 5.0 mi NNE 13.8 mph 20.7 mph N/A   Light Drizzle
11:55 AM 41.0 °F 31.9 °F 39.2 °F 93% 30.12 in 4.0 mi NNE 19.6 mph 24.2 mph N/A Rain Rain
12:15 PM 40.3 °F 32.2 °F 39.0 °F 95% 30.13 in 3.0 mi NNE 15.0 mph 21.9 mph N/A Rain Rain
12:35 PM 39.6 °F 30.0 °F 37.8 °F 93% 30.14 in 3.0 mi NNE 19.6 mph 25.3 mph N/A   Light Drizzle
12:55 PM 39.7 °F 30.6 °F 37.6 °F 92% 30.14 in 7.0 mi North 18.4 mph 23.0 mph N/A   Overcast
1:15 PM 39.7 °F 30.9 °F 37.2 °F 91% 30.14 in 10.0 mi North 17.3 mph 25.3 mph N/A   Overcast
1:35 PM 39.7 °F 30.6 °F 37.0 °F 90% 30.14 in 10.0 mi North 18.4 mph 28.8 mph N/A   Overcast
1:55 PM 39.9 °F 30.0 °F 36.9 °F 89% 30.14 in 10.0 mi NNE 21.9 mph 29.9 mph N/A   Overcast
2:15 PM 40.1 °F 30.5 °F 36.5 °F 87% 30.14 in 10.0 mi NNE 20.7 mph 26.5 mph N/A   Overcast
2:35 PM 39.7 °F 31.5 °F 36.5 °F 88% 30.14 in 10.0 mi NNE 15.0 mph 25.3 mph N/A   Overcast
2:55 PM 40.1 °F 31.0 °F 36.3 °F 86% 30.15 in 10.0 mi North 18.4 mph 27.6 mph N/A   Overcast
3:15 PM 40.1 °F 31.3 °F 36.0 °F 85% 30.15 in 10.0 mi NNE 17.3 mph 26.5 mph N/A   Overcast
3:35 PM 40.1 °F 30.7 °F 35.6 °F 84% 30.16 in 10.0 mi NNE 19.6 mph 26.5 mph N/A   Overcast
3:55 PM 40.6 °F 33.0 °F 35.6 °F 82% 30.16 in 10.0 mi North 13.8 mph 26.5 mph N/A   Overcast
4:15 PM 41.2 °F 32.7 °F 35.2 °F 79% 30.16 in 10.0 mi North 17.3 mph 25.3 mph N/A   Overcast
4:35 PM 42.3 °F 34.4 °F 35.6 °F 77% 30.17 in 10.0 mi North 16.1 mph - N/A   Overcast
4:55 PM 42.3 °F 35.5 °F 35.6 °F 77% 30.17 in 10.0 mi North 12.7 mph 20.7 mph N/A   Overcast
5:15 PM 42.3 °F 35.1 °F 35.6 °F 77% 30.17 in 10.0 mi NNE 13.8 mph - N/A   Overcast
5:35 PM 43.0 °F 35.7 °F 36.0 °F 76% 30.17 in 10.0 mi North 15.0 mph 18.4 mph N/A   Overcast
5:55 PM 42.3 °F 35.1 °F 35.6 °F 77% 30.18 in 10.0 mi North 13.8 mph - N/A   Overcast
6:15 PM 42.3 °F 35.5 °F 35.2 °F 76% 30.19 in 10.0 mi North 12.7 mph 21.9 mph N/A   Overcast
6:35 PM 42.3 °F 35.9 °F 35.6 °F 77% 30.19 in 10.0 mi North 11.5 mph 16.1 mph N/A   Overcast
6:55 PM 42.1 °F 36.1 °F 35.6 °F 78% 30.19 in 10.0 mi North 10.4 mph 16.1 mph N/A   Overcast
7:15 PM 41.0 °F 37.1 °F 34.3 °F 77% 30.20 in 10.0 mi North 5.8 mph - N/A   Scattered Clouds
7:35 PM 40.1 °F 36.9 °F 34.7 °F 81% 30.20 in 10.0 mi North 4.6 mph - N/A   Clear
7:55 PM 39.2 °F 37.0 °F 34.7 °F 84% 30.20 in 10.0 mi North 3.5 mph - N/A   Clear
8:15 PM 38.3 °F - 34.2 °F 85% 30.20 in 10.0 mi Calm Calm - N/A   Clear
8:35 PM 37.4 °F - 34.2 °F 88% 30.20 in 10.0 mi Calm Calm - N/A   Clear
8:55 PM 34.5 °F - 32.2 °F 91% 30.20 in 10.0 mi Calm Calm - N/A   Clear
9:15 PM 32.2 °F - 31.1 °F 96% 30.21 in 10.0 mi Calm Calm - N/A   Clear
9:35 PM 33.8 °F - 32.5 °F 95% 30.21 in 10.0 mi Calm Calm - N/A   Clear
9:55 PM 30.7 °F 27.3 °F 29.3 °F 94% 30.21 in 10.0 mi SW 3.5 mph - N/A   Clear
10:15 PM 32.4 °F - 31.8 °F 98% 30.21 in 10.0 mi Calm Calm - N/A   Clear
10:35 PM 32.4 °F 29.1 °F 31.3 °F 96% 30.21 in 10.0 mi SW 3.5 mph - N/A   Clear
10:55 PM 30.9 °F 26.2 °F 29.8 °F 96% 30.21 in 10.0 mi WSW 4.6 mph - N/A   Clear
11:15 PM 31.6 °F 28.3 °F 30.7 °F 96% 30.21 in 10.0 mi WSW 3.5 mph - N/A   Clear
11:35 PM 30.6 °F 25.8 °F 29.7 °F 96% 30.21 in 10.0 mi SW 4.6 mph - N/A   Clear
11:55 PM 30.0 °F 25.2 °F 29.1 °F 96% 30.21 in 10.0 mi WSW 4.6 mph - N/A   Clear